Meteo Giornale » Osservazioni meteo Stati Uniti (USA) » Montauk
ore: 16:54 - Osservazioni Meteo Montauk
Lat. 41° 4' N Lon. 71° 55' W Alt. 2 metri s.l.m.
23 °C
Sereno
Temp. 24 Ore
21 °C
23 °C
Nord
7.4 Km/h
Dew point 16 °C
Umidità 64 %
Visibilità 0 Km
Il sole sorge alle ore 06:13
Il sole tramonta alle ore 19:22
| Data e Ora | Cielo e Fenomeni | T °C | DP °C | Um. % | Pres. hPa | Vis. km | Vento km/h | |
|---|---|---|---|---|---|---|---|---|
| Oggi h: 16:54 | Sereno | 23 | 16 | 64 | 1019 | 0 | N 7.4 | |
| Oggi h: 15:54 | Sereno | 23 | 17 | 68 | 1020 | 0 | N 7.4 | |
| Oggi h: 14:54 | Sereno | 23 | 16 | 64 | 1020 | 0 | N 0 | |
| Oggi h: 13:54 | Sereno | 23 | 16 | 64 | 1020 | 0 | E/NE 11.1 | |
| Oggi h: 12:54 | Sereno | 23 | 17 | 68 | 1020 | 0 | N 7.4 | |
| Oggi h: 11:54 | Sereno | 22 | 17 | 73 | 1020 | 0 | E/NE 9.3 | |
| Oggi h: 10:54 | Sereno | 22 | 17 | 73 | 1021 | 0 | E/NE 13 | |
| Oggi h: 09:54 | Sereno | 22 | 18 | 78 | 1020 | 0 | N 9.3 | |
| Oggi h: 08:54 | Sereno | 21 | 17 | 77 | 1020 | 0 | NE 11.1 | |
| Oggi h: 07:54 | Sereno | 21 | 17 | 77 | 1020 | 0 | N/NE 13 | |
| Oggi h: 06:54 | Sereno | 21 | 17 | 77 | 1019 | 0 | N 7.4 | |
| Oggi h: 05:54 | Sereno | 21 | 17 | 77 | 1019 | 0 | N 13 | |
| Oggi h: 04:54 | Sereno | 21 | 18 | 82 | 1018 | 0 | N/NO 11.1 | |
| Oggi h: 03:54 | Sereno | 21 | 18 | 82 | 1019 | 0 | NO 11.1 | |
| Oggi h: 02:54 | Sereno | 22 | 18 | 78 | 1018 | 0 | O/NO 9.3 | |
| Oggi h: 01:54 | Sereno | 22 | 19 | 83 | 1018 | 0 | O/NO 7.4 | |
| Oggi h: 00:54 | Sereno | 23 | 20 | 83 | 1018 | 0 | O/NO 9.3 | |
| Ieri h: 23:54 | Sereno | 23 | 20 | 83 | 1018 | 0 | O 11.1 | |
| Ieri h: 22:54 | Sereno | 23 | 21 | 88 | 1018 | 0 | O/SO 13 | |
| Ieri h: 21:54 | Sereno | 23 | 21 | 88 | 1018 | 0 | SO 11.1 | |
| Ieri h: 20:54 | Sereno | 23 | 19 | 78 | 1018 | 0 | SO 11.1 | |
| Ieri h: 19:54 | Sereno | 22 | 19 | 83 | 1018 | 0 | N 9.3 | |
| Ieri h: 18:54 | Sereno | 23 | 19 | 78 | 1018 | 0 | SO 11.1 | |
| Ieri h: 17:54 | Sereno | 23 | 20 | 83 | 1018 | 0 | N 11.1 | |



